www.pogodaiklimat.ru

Погода и климат >> Архив погоды >> Южная Африка >> Ист-Лондон


ПОГОДА в Ист-Лондоне

  • Прогноз погоды в Ист-Лондоне
  • Монитор погоды в Ист-Лондоне

АРХИВ ПОГОДЫ в Ист-Лондоне

Время (UTC), дата Ветер
(напр.,м/с)
 
Видим.   Явления Облачность Т
(С)
Тd
(С)
f
(%)
Тe
(С)
Тes
(С)
Комфортность P
(гПа)
Po
(гПа)
Тmin
(С)
Tmax
(С)
R
(мм)
R24
(мм)
S
(см)
18 16.08 ЮЗ 8
{14}
н/о ясно +15.9 +11.1 73 +14 +14 1024.9 1009.1 +22.2
00 17.08 З 5
{11}
н/о ?/? +15.6 +10.2 70 +14 +14 1026.9 1011.0
06 17.08 ЮЗ 3 3600 м слаб. дождь 10/10 100 м
[Sc]
+13.5 +13.2 98 +12 +12 1030.2 1014.2 +13.2 3
12 17.08 В 4 8000 м слаб. морось 10/10 300 м
[Sc Ac As]
+14.5 +13.2 92 +13 +13 1029.3 1013.3 +13.2 2
18 17.08 СВ 4 20 км в посл. час морось 8/8 600 м
[Sc]
+13.4 +12.1 92 +12 +12 1029.1 1013.1 +15.5 2
00 18.08 СВ 5 н/о 1/1
[]
+13.4 +12.1 92 +11 +11 1025.1 1009.1
06 18.08 СВ 6 30 км 6/0
[Ac As]
+14.6 +12.0 84 +13 +13 1020.3 1004.5 +13.0 2
12 18.08 СВ 5 20 км 6/0
[Ac trans]
+21.5 +15.2 67 +25 +27 комфорт 1014.6 999.2 +13.0
18 18.08 С 2 н/о 1/0
[]
+19.2 +16.5 84 +21 +21 комфорт 1013.5 998.0 +22.6
00 19.08 ЮЗ 9
{14}
н/о 1/0
[]
+16.7 +13.1 79 +15 +15 1018.2 1002.5
06 19.08 З 6 30 км 1/0
[Ac und]
+16.3 +10.0 66 +15 +16 1022.8 1007.0 +15.2
12 19.08 Ю 10 30 км 3/3 1500 м
[Sc]
+19.0 +9.9 56 +19 +19 1023.9 1008.3 +15.2
18 19.08 З 5 20 км ясно +14.6 +7.5 62 +13 +13 1028.7 1012.8 +21.8
00 20.08 З 5 н/о ?/? +15.0 +4.5 49 +14 +14 1030.8 1014.8
06 20.08 З 4 30 км 8/8 1000 м
[Sc Ac As]
+14.8 +5.9 55 +14 +14 1032.1 1016.1 +13.3
12 20.08 Ю 6 30 км 4/1 1500 м
[Sc Ac cast]
+19.3 +11.9 62 +20 +23 1030.9 1015.2 +13.3
18 20.08 С 1 20 км 6/6 300 м
[Sc]
+12.5 +11.6 94 +12 +12 1032.3 1016.2 +19.8
00 21.08 СЗ 3 н/о ясно +12.7 +10.8 88 +11 +11 1032.1 1016.0
06 21.08 С 2 20 км ясно +13.8 +10.6 81 +14 +15 1030.7 1014.7 +10.7
12 21.08 В 9 30 км ясно +20.2 +13.0 63 +22 +23 комфорт 1026.6 1011.0 +10.7
18 21.08 СВ 4 30 км ясно +16.2 +14.1 87 +15 +15 1025.5 1009.7 +21.1
00 22.08 С 4 н/о ясно +15.8 +10.2 69 +15 +15 1022.3 1006.5
06 22.08 нст 2 30 км 1/0
[Cs]
+13.0 +8.3 73 +13 +15 1022.3 1006.4 +8.9
12 22.08 Ю 3 30 км 9/0
[Cs]
+33.0 -1.1 11 +29 +35 жарко 1018.9 1004.0 +8.9
18 22.08 З 5 20 км ясно +17.8 +3.5 39 +17 +17 1022.3 1006.8 +33.9
00 23.08 ЮЗ 4 н/о ясно +14.6 +5.7 55 +13 +13 1024.9 1009.0
06 23.08 З 4 30 км местами туман поземный 10/10 300 м
[Sc Ac As]
+16.4 +15.4 94 +16 +16 1026.4 1010.6 +13.5
12 23.08 В 4 10 км 3/3 600 м
[Sc]
+20.0 +15.1 73 +22 +26 комфорт 1025.3 1009.7 +13.5

 

Местоположение метеостанции Ист-Лондон (Южная Африка): широта -33.03 долгота 27.83 высота над уровнем моря 125 м.

В архиве по умолчанию представлена погода в Ист-Лондоне за последнюю неделю. Архивные данные за месяц целиком и за предыдущие месяцы, начиная с января 2011 года, Вы можете получить, выбрав интересующий диапазон дат из раскрывающегося списка и нажав кнопку "Ввод!".


*Определитесь, кто Вы:
робот инопланетянин человек

Внимание! Время в таблицах - всемирное. Для получения местного времени необходимо прибавить поправку, которая равна 2 ч.

Смотрите также архив погоды в соседних городах и на ближайших метеорологических станциях:

Погода в Аэропорту Бишо (Южная Африка) (53 км)
Погода в Стуттерхейме (Южная Африка) (67 км)
Погода в Порт-Альфред (Южная Африка) (106 км)
Погода в Форт-Бофорте (Южная Африка) (115 км)
Погода в Грейамстауне (Южная Африка) (127 км)
Погода в Куинстаун аэропорту (Южная Африка) (153 км)
Погода в Куинстауне (Южная Африка) (155 км)
Погода на Острове Бёрд (Южная Африка) (169 км)
Погода в Коффи-Бей (Южная Африка) (171 км)
Погода в Умтате (Южная Африка) (185 км)

Пояснения к столбцам:

Ветер - указаны скорость ветра в м/с - средняя за 10 мин, порывы в срок и между сроками (в фигурных скобках) и направление, откуда дует ветер: С - северный, СВ - северо-восточный, В - восточный, ЮВ - юго-восточный, Ю - южный, ЮЗ - юго-западный, З - западный, СЗ - северо-западный.
Видимость - горизонтальная дальность видимости в метрах или километрах. При видимости от 1 до 10 км при отсутствии осадков обычно наблюдается дымка, при ухудшении видимости до 1 км и менее - туман. В сухую погоду видимость может ухудшаться дымом, пылью или мглою.
Явления - указаны атмосферные явления, наблюдавшиеся в срок или в последний час перед сроком; фигурными скобками обозначены явления, наблюдавшиеся между сроками (за 1-3 часа до срока); квадратными скобками обозначены град или гололедные отложения с указанием их диаметра в мм.
Облачность - указаны через наклонную черту общая и нижняя облачность в баллах и высота нижней границы облаков в метрах; квадратными скобками обозначены формы облаков: Ci - перистые, Cs - перисто-слоистые, Cc - перисто-кучевые, Ac - высококучевые, As - высокослоистые, Sc - слоисто-кучевые, Ns - слоисто-дождевые, Cu - кучевые, Cb - кучево-дождевые. Подробнее классификацию облаков см. в Атласе облаков (PDF).
T - Температура воздуха - температура, измеренная на высоте 2 м над землей.
Td - Температура точки росы - температура, при понижении до которой содержащийся в воздухе водяной пар достигнет насыщения.
f - Относительная влажность воздуха - влажноcть воздуха, измеренная на высоте 2 м над землей.
Te - Эффективная температура - температура, которую ощущает одетый по сезону человек в тени. Характеристика душности погоды. При расчете учитывается влияние влажности воздуха и скорости ветра на теплоощущения человека.
Tes - Эффективная температура на солнце - температура, которую ощущает человек, с поправкой на солнечный нагрев. Характеристика знойности погоды. Зависит от высоты солнца над горизонтом, облачности и скорости ветра. Ночью, в пасмурную погоду, а также при ветре 12 м/с и более поправка равна нулю.
P - Атмосферное давление - приведенное к уровню моря атмосферное давление.
Po - Атмосферное давление - измеренное на уровне метеостанции атмосферное давление.
Tmin - Минимальная температура - минимум температуры воздуха на высоте 2 м над землей.
Tmax - Максимальная температура - максимум температуры воздуха на высоте 2 м над землей.
R - Количество осадков - Количество выпавших осадков за период времени, мм. При наведении курсора мыши на число - период времени, за который выпало указанное количество осадков.
R24 - Количество осадков - Количество выпавших осадков за 24 часа, мм.
S - Снежный покров - Высота снежного покрова, см. При наведении курсора мыши на число - состояние снежного покрова и степень покрытия местности в баллах.